Location: Unspecified
(0.0000°N, 0.0000°E)
Time: 22:41:01
(UTC+01:00)

Daily predictions for brighter satellites

Satellite Brightness Start Highest point End
(mag) Time Altitude Azimuth Time Altitude Azimuth Time Altitude Azimuth
Cosmos 1833 Rocket 2.8 19:26:47 10° S 19:32:17 58° ESE 19:37:45 10° NNE
Aurora 2 Rocket 4.4 19:26:12 10° NW 19:34:14 71° NNE 19:44:51 10° ESE
Cosmos 1328 Rocket 3.6 19:34:24 10° N 19:38:35 53° E 19:42:47 10° SSE
XTE 3.8 19:36:44 10° W 19:39:11 34° NNW 19:41:37 10° NE
Cosmos 2228 Rocket 3.6 19:37:37 10° NNE 19:41:54 41° E 19:46:11 10° SSE
Cosmos 2366 rocket 4.5 19:36:05 10° NNW 19:42:09 66° W 19:48:14 10° S
Cosmos 2098 Rocket 4.4 19:37:08 10° N 19:44:03 70° E 19:51:34 10° S
BREEZE-M DEB (TANK) 1.8 19:42:49 10° NNW 19:44:46 47° NE 19:47:13 10° SE
ARIANE 5 R/B 4.0 14:21:39 10° W 19:44:53 76° N 19:50:37 11° ENE
ARIANE 5 DEB (SYLDA) 3.1 19:44:18 10° SW 19:45:41 19° S 19:47:14 10° ESE
NOAA 12 4.0 19:42:01 10° SSE 19:47:13 67° ENE 19:52:23 10° N
H-2A R/B 3.5 19:44:31 10° SE 19:47:48 29° E 19:51:06 10° NNE
Meteor 1-27 4.3 19:45:31 10° N 19:51:17 72° E 19:57:07 10° S
YAOGAN 1 4.1 19:48:05 10° S 19:52:09 40° WSW 19:56:12 10° NNW
CZ-4 R/B 4.3 19:48:58 10° SSW 19:52:17 23° WSW 19:55:37 10° NW
Cosmos 1805 Rocket 3.6 19:49:58 10° S 19:54:20 61° E 19:58:38 10° NNE
BLOCK DM-SL R/B 0.5 19:56:38 10° W 19:58:36 82° N 20:01:50 15° E
USA 267 3.2 19:54:12 10° SE 20:00:46 80° NE 20:07:20 10° NNW
CCE 1 Rocket 3.4 19:57:33 10° NW 20:01:18 63° NNE 20:05:59 10° ESE
Cosmos 540 Rocket 4.1 19:59:30 10° SSE 20:04:13 36° ESE 20:07:59 15° NE
ATLAS 2AS CENTAUR RB 2.5 20:02:25 10° WSW 20:04:25 20° SSW 20:05:52 10° SE
GPS 2-05 Rocket1 2.8 20:04:04 10° WNW 20:07:05 63° SW 20:10:04 10° SE
Cosmos 1151 Rocket 2.9 20:03:34 10° N 20:07:55 78° E 20:12:16 10° S
ARIANE 5 DEB (SYLDA) -0.2 20:06:41 10° W 20:08:27 84° S 20:08:30 81° SE
ALOS 3.5 20:04:23 10° S 20:08:50 45° WSW 20:13:16 10° NNW
Cosmos 1455 2.6 20:09:25 10° NNW 20:13:09 65° W 20:16:53 10° S
Atlas Centaur 2 3.9 20:10:47 10° W 20:18:01 35° NW 20:23:23 14° NNE
FREGAT/IRIS 2.4 20:16:25 10° SSE 20:19:24 82° E 20:22:21 10° N
Cosmos 1666 Rocket 3.5 20:15:13 10° S 20:19:40 77° E 20:24:07 10° N
Cosmos 1727 Rocket 3.9 20:14:05 10° S 20:20:14 67° E 20:26:19 10° NNE
SL-24 R/B - RUBIN 2 3.4 20:16:47 10° NNW 20:21:04 71° ENE 20:25:36 10° SSE
Cosmos 292 Rocket 4.0 20:16:39 10° S 20:21:12 46° ESE 20:23:24 27° NE
Meteor 2-10 Rocket 4.4 20:21:33 25° E 20:21:33 25° E 20:25:24 10° SE
Meteor 2-3 Rocket 4.5 20:16:28 10° SSE 20:21:16 30° E 20:22:41 26° ENE
Cosmos 1656 Rocket 4.1 20:15:59 10° NNW 20:21:29 65° WSW 20:27:05 10° S
Cosmos 1934 Rocket 4.1 20:16:16 10° NNE 20:22:23 51° E 20:28:28 10° SSE
ERS-2 2.8 20:18:57 10° S 20:22:33 57° WSW 20:26:09 10° NNW
SPOT 3 Rocket 4.4 20:17:57 10° S 20:22:58 52° WSW 20:27:56 10° NNW
In-Cosmos 22 Rocket 4.1 20:19:00 10° S 20:24:38 88° E 20:30:04 10° N
GOES 2 Rocket 3.9 20:21:17 10° SW 20:25:51 37° SSE 20:27:23 28° ESE
HJ-1C 3.3 20:23:32 10° SSE 20:26:51 57° ENE 20:27:54 37° NNE
Cosmos 1605 Rocket 4.4 20:27:18 23° NE 20:30:19 36° E 20:35:50 10° SSE
ARGOS Delta rocket 3.9 20:25:34 10° NNE 20:30:52 79° E 20:35:57 10° S
CZ-2D R/B 4.2 20:29:35 10° SSE 20:31:58 31° SE 20:31:58 31° SE
Ariane H10 4.5 14:04:38 10° W 20:35:39 63° S 20:40:21 22° ESE
Cosmos 1633 Rocket 3.0 20:31:40 10° S 20:36:02 80° W 20:39:11 18° N
EUTELSAT W3B 2.8 20:31:46 10° W 20:37:21 69° S 20:37:29 67° SSE
Cosmos 1869 3.1 20:36:01 28° N 20:38:00 77° E 20:41:57 10° S
OAO 1 Rocket 4.3 20:35:04 10° SW 20:40:26 83° SE 20:42:00 47° ENE
Cosmos 1892 2.6 20:42:19 10° S 20:46:11 90° W 20:46:24 79° N
SWIFT 4.0 20:43:02 10° WNW 20:46:24 22° NNW 20:46:39 22° NNW
Abrixas rocket 4.4 20:45:25 10° S 20:46:32 17° S 20:46:32 17° S
CZ-3A R/B 4.0 20:46:54 10° WNW 20:51:38 41° N 20:58:21 28° NE
NOSS 3-4 (A) 4.0 20:47:50 10° NNW 20:55:31 84° WSW 21:03:27 10° SSE
NOSS 3-4 (C) 4.0 20:47:56 10° NNW 20:55:37 85° WSW 21:03:34 10° SSE
Ariane H10 3.6 20:54:22 10° WSW 20:56:57 49° S 20:57:19 48° SSE
deb Olympus 4.4 20:53:06 10° WNW 20:57:17 79° N 21:02:59 34° E
SJ-6B 3.6 20:53:25 10° S 20:57:18 52° WSW 20:59:25 24° NW
Cosmos 1340 4.1 20:54:23 10° NNW 20:57:51 36° W 21:01:20 10° SSW
Cosmos 1000 Rocket 4.3 20:53:31 10° S 20:59:37 65° E 21:00:24 59° NE
Envisat 2.8 20:57:12 10° SSE 21:02:18 82° ENE 21:02:20 82° ENE
Skynet4D Del rocket 4.2 20:54:57 10° WSW 21:02:58 78° SSE 21:04:37 57° E
DELTA 2 R/B (1) 3.7 21:13:13 10° SW 21:18:09 70° WSW 21:18:09 70° WSW
Meteor 2-17 Rocket 4.4 21:18:08 59° NNW 21:19:21 79° W 21:25:29 10° S
ARIANE DEB (SYLDA) 4.1 21:17:47 10° W 21:22:54 65° S 21:54:04 10° E
ARIANE DEB (SYLDA) 4.1 21:17:47 10° W 21:22:54 65° S 21:54:03 10° E
ARIANE DEB (SYLDA) 4.1 21:17:47 10° W 21:22:55 65° S 21:54:04 10° E
Milstar 3 Cent rocket 3.9 21:41:49 10° NW 21:56:07 59° NNW 21:56:07 59° NNW
